DW1039 Weather Reports


Display with metric or nautical units.
time (UTC)temp
F
wind
direction
speed
MPH
gust
MPH
rain 1hr
in
rain 24hr
in
rain mn
in
humidity
%
barometer
mb
20260508193848 68 290 1.0 5.0 0.00 0.00 0.00 45 1010.9
20260508192828 68 224 4.0 13.0 0.00 0.00 0.00 44 1011.0
20260508191848 69 284 3.0 9.0 0.00 0.00 0.00 43 1011.0
20260508190828 70 184 12.0 12.0 0.00 0.00 0.00 43 1011.3
20260508185828 70 211 2.0 17.0 0.00 0.00 0.00 41 1011.3
20260508184828 69 215 3.0 5.0 0.00 0.00 0.00 45 1011.6
20260508150826 62 198 3.0 11.0 0.00 0.00 0.00 56 1014.8
20260508145826 62 269 2.0 10.0 0.00 0.00 0.00 54 1014.9
20260508144826 61 201 6.0 8.0 0.00 0.00 0.00 56 1014.9
20260508143826 61 300 2.0 7.0 0.00 0.00 0.00 56 1015.0
20260508142826 60 343 4.0 12.0 0.00 0.00 0.00 55 1015.0
20260508141825 59 306 2.0 10.0 0.00 0.00 0.00 56 1015.2
20260508140825 59 265 2.0 8.0 0.00 0.00 0.00 58 1015.3
20260508135825 58 262 3.0 10.0 0.00 0.00 0.00 57 1015.3
20260508134825 57 291 1.0 10.0 0.00 0.00 0.00 60 1015.4
20260508133826 56 186 3.0 5.0 0.00 0.00 0.00 59 1015.4
20260508092823 44 211 0.0 0.0 0.00 0.00 0.00 85 1014.7
20260508091823 44 211 0.0 0.0 0.00 0.00 0.00 85 1014.9
20260508090843 44 211 0.0 0.0 0.00 0.00 0.00 84 1014.9
20260508085824 43 212 0.0 0.0 0.00 0.00 0.00 84 1014.9
20260508050822 44 214 0.0 0.0 0.00 0.00 0.00 79 1015.2
20260508045822 44 212 0.0 0.0 0.00 0.00 0.00 78 1015.2
20260508044822 44 213 0.0 0.0 0.00 0.00 0.00 78 1015.3
20260508043821 44 211 0.0 0.0 0.00 0.00 0.00 78 1015.0
20260508042822 44 214 0.0 0.0 0.00 0.00 0.00 77 1015.0
20260508041821 44 213 0.0 0.0 0.00 0.00 0.00 78 1015.1
20260508040821 45 212 0.0 0.0 0.00 0.00 0.00 78 1015.0
20260508035821 45 211 0.0 0.0 0.00 0.00 0.00 78 1015.0
20260507233819 60 283 0.0 3.0 0.00 0.00 0.00 42 1014.3
20260507232819 61 312 0.0 2.0 0.00 0.00 0.00 41 1014.3
20260507231839 61 295 0.0 1.0 0.00 0.00 0.00 44 1014.3